Wind_Speed
28 28 28 30 30 28 29 29 28 31 32 32 33 34 35 37 40 43 46 48 49 51 53 53 53 51 50 51 53 53 54 55 54 49 46 45 42 42 39 37 31 30 35
34 32 32 33 34 35 34 34 35 35 35 36 36 37 37 39 44 47 50 52 53 56 59 60 60 59 55 56 60 61 59 58 63 55 48 48 46 45 44 40 39 37 42
40 37 35 36 38 38 38 39 39 39 40 40 41 42 42 43 46 49 53 55 57 59 61 64 65 61 57 63 64 62 62 65 65 56 57 53 54 52 52 53 48 46 49
40 41 39 39 40 42 42 45 45 43 44 44 47 48 47 46 48 53 56 58 61 64 65 69 69 59 60 67 68 66 65 66 64 64 60 59 56 53 53 60 58 56 57
45 45 45 43 45 46 47 49 50 49 48 48 51 52 54 53 53 57 61 62 64 67 69 72 62 64 65 71 70 69 67 66 64 60 56 59 57 56 59 63 61 60 64
51 50 50 48 50 51 52 53 55 56 55 53 55 56 59 59 59 63 67 68 68 70 73 68 65 64 66 73 72 69 65 69 66 69 68 57 55 70 70 68 65 65 66
54 56 56 56 59 60 59 59 60 59 60 59 60 61 63 64 65 67 73 75 75 76 76 70 62 64 71 68 74 71 69 74 71 70 63 61 66 70 79 79 79 68 65
66 67 64 63 65 68 67 66 65 64 63 64 65 65 65 66 70 73 78 80 81 73 69 62 64 67 69 71 68 68 73 73 73 70 72 73 77 79 90 85 80 67 65
71 73 73 68 71 72 71 70 70 69 67 68 67 68 69 71 73 76 80 81 73 68 60 62 69 77 74 72 73 77 79 77 75 75 72 76 85 91 94 92 100 89 81
79 79 81 77 75 73 74 74 74 76 75 74 74 74 75 76 79 81 77 73 61 58 58 65 71 79 74 74 79 82 84 81 78 75 79 84 87 95 104 105 100 95 87
86 86 88 85 82 78 79 79 78 79 81 80 79 77 78 80 83 81 75 58 58 61 63 69 77 81 75 78 85 90 92 86 78 78 83 90 95 103 109 112 104 90 82
84 89 90 87 86 87 85 85 84 83 84 84 83 83 84 83 84 78 63 55 65 65 68 70 79 76 79 84 91 95 93 85 78 83 91 95 99 108 110 119 96 85 79
71 73 76 79 82 86 87 87 89 85 85 83 80 78 73 75 68 57 46 66 72 71 79 77 80 76 79 80 84 95 95 88 83 88 95 102 108 111 113 122 92 81 71
55 53 54 49 38 44 55 52 51 47 42 44 51 52 56 55 54 55 48 65 72 83 88 83 83 80 79 81 85 96 98 88 86 93 97 105 109 113 114 105 83 73 64
51 45 34 20 28 35 35 25 20 29 44 41 29 31 48 71 61 75 75 72 76 81 86 91 87 85 83 90 92 97 103 86 88 92 99 108 111 110 111 90 78 66 61
38 40 30 30 28 36 32 37 34 31 41 37 28 31 33 55 73 79 90 93 82 76 83 93 89 90 88 91 93 100 95 85 92 96 102 107 114 119 103 85 73 64 60
28 37 43 24 20 38 47 49 36 79 68 36 35 37 61 57 65 71 76 87 86 85 88 90 92 92 91 92 96 104 94 90 93 99 105 113 115 112 97 84 71 62 58
44 35 23 26 22 55 53 51 36 32 77 65 61 62 78 75 74 75 79 83 84 82 90 95 91 87 86 96 105 100 93 92 98 102 108 111 113 112 91 80 69 62 55
45 39 25 29 48 40 55 58 64 66 71 71 70 80 81 80 84 90 95 97 100 100 99 96 94 100 98 106 100 96 94 98 102 105 110 115 117 101 87 75 65 57 51
51 45 33 43 55 63 68 68 72 78 81 74 87 90 92 85 85 94 101 104 104 104 105 103 103 102 104 102 103 97 97 99 102 106 113 110 104 93 80 69 59 54 47
52 45 41 51 62 61 63 68 70 76 84 93 83 83 88 93 93 101 103 113 114 111 104 107 109 107 106 106 98 94 99 102 106 109 106 102 100 84 74 64 56 52 48
57 59 54 60 59 65 67 77 86 85 80 78 81 88 94 97 103 107 112 116 112 111 108 106 106 100 103 94 94 97 102 102 106 108 103 96 89 74 69 60 54 50 48
68 68 62 59 64 65 74 83 82 78 84 90 93 95 98 96 95 95 99 102 101 100 98 95 92 89 87 91 96 98 99 96 95 93 91 88 77 70 64 56 52 49 46
70 77 76 75 80 83 80 84 86 90 93 94 92 95 91 86 87 88 91 92 95 96 94 86 83 82 85 93 96 95 88 93 93 88 88 81 72 68 60 52 49 47 44
45 49 54 59 68 73 72 69 71 72 73 79 81 80 74 68 69 73 74 73 73 76 77 81 84 91 90 83 92 91 94 100 90 87 84 73 68 65 57 49 47 44 42
49 48 51 49 50 54 51 56 63 68 78 74 74 79 80 77 65 65 70 73 77 79 82 87 90 90 90 89 92 93 98 96 89 87 79 69 64 62 55 46 44 42 39
Wind_Direction
257 264 269 273 274 279 284 289 292 297 302 308 309 313 319 322 324 325 326 326 327 329 330 331 333 334 336 335 336 336 335 336 335 333 323 324 324 322 316 314 300 287 281
260 261 266 271 276 279 282 284 287 292 296 300 304 308 313 317 321 322 322 323 325 327 328 328 329 331 332 333 335 334 333 331 332 332 328 323 323 324 318 305 309 301 290
263 263 265 270 274 276 278 281 283 288 293 297 301 305 310 314 316 316 316 320 322 323 324 324 324 325 329 331 331 330 330 330 329 324 329 321 326 322 319 321 303 298 295
260 265 265 268 273 276 277 280 283 287 290 295 298 301 306 308 310 311 314 317 319 320 321 321 321 321 323 328 327 330 329 330 327 323 322 314 321 315 314 308 309 296 289
258 264 269 271 273 275 277 280 283 286 289 292 295 300 302 305 307 310 311 314 315 316 317 320 318 319 323 325 327 329 328 327 324 319 312 313 305 307 313 310 309 296 290
253 261 265 268 272 274 275 277 281 284 287 292 294 297 300 304 307 310 310 312 313 313 316 315 312 316 318 324 324 324 324 325 320 318 320 321 303 313 313 315 311 304 297
253 260 264 268 270 270 272 276 278 282 286 289 293 296 300 304 306 309 309 309 312 313 312 309 307 311 319 320 321 323 323 323 321 321 317 315 316 321 324 321 318 311 302
256 259 261 263 266 270 272 273 276 281 285 289 292 295 298 300 305 307 306 308 311 311 309 304 308 310 318 317 321 320 322 319 319 315 317 326 329 329 331 332 324 314 305
257 258 258 259 263 267 269 273 277 278 281 284 288 292 296 301 304 304 305 307 309 306 300 302 308 316 317 316 318 321 321 321 319 320 326 328 329 328 330 328 332 324 315
256 259 262 263 264 266 271 274 278 282 285 288 291 294 299 302 302 301 304 304 299 296 297 303 310 316 316 314 319 319 320 320 322 323 326 327 326 327 328 331 329 323 315
256 258 259 265 266 269 271 273 275 278 283 286 290 293 295 297 298 300 303 294 292 293 294 298 311 315 313 314 317 319 322 322 322 324 326 325 326 324 329 331 326 320 314
254 256 260 263 269 273 274 276 279 281 282 284 287 289 292 294 296 301 299 283 288 291 290 297 305 311 312 316 317 320 319 320 323 325 324 322 323 324 327 329 326 322 317
259 264 268 270 272 276 280 279 278 279 282 283 285 287 291 291 299 295 295 288 289 284 291 295 305 308 312 316 319 318 317 316 323 322 321 323 323 326 325 328 324 321 316
264 265 265 270 273 289 298 281 282 288 308 298 285 287 290 292 306 279 272 274 275 280 282 294 300 307 311 314 316 316 314 317 319 318 322 321 324 326 325 326 323 321 317
263 264 256 254 283 309 326 304 287 292 318 320 304 303 282 290 286 283 277 270 272 273 280 288 298 308 309 311 315 314 311 316 317 320 321 322 327 325 327 325 324 322 319
249 244 229 238 283 308 305 317 274 293 311 303 295 289 256 240 259 259 263 260 267 273 277 291 299 304 310 311 314 313 310 312 318 318 316 319 322 326 326 326 326 324 323
233 226 227 255 286 312 298 296 293 278 278 278 267 253 261 248 243 258 268 263 264 273 286 291 297 303 305 309 312 308 310 314 316 313 318 318 324 326 326 327 326 326 323
229 214 235 249 253 276 278 279 239 219 237 245 246 240 247 256 254 259 258 265 274 280 285 290 296 302 307 308 308 308 312 313 313 315 317 320 322 324 327 328 327 325 323
228 226 246 231 228 244 229 234 241 249 245 242 248 238 248 252 257 260 266 271 273 278 283 289 295 298 302 303 305 306 310 313 314 314 316 319 322 324 325 326 325 324 323
230 233 249 231 226 232 234 238 234 242 245 249 246 244 247 257 265 265 265 267 271 276 280 285 289 294 298 300 300 305 307 307 311 313 316 320 324 324 324 323 322 323 325
227 235 244 232 238 236 232 236 234 243 250 248 249 247 251 255 261 267 267 268 270 273 279 280 286 291 294 295 298 304 304 308 310 313 320 320 322 321 323 321 323 326 328
227 233 234 238 241 239 240 239 242 247 249 255 257 258 260 263 267 270 269 267 268 272 277 281 285 285 290 293 297 300 305 310 311 313 315 320 321 320 322 321 323 326 327
233 232 237 243 242 246 242 241 243 251 256 257 262 263 263 265 267 267 267 269 273 275 277 281 286 288 290 294 297 303 308 312 315 317 318 321 319 321 322 320 321 323 327
241 240 242 246 250 253 250 249 256 261 260 265 269 269 265 261 261 261 262 266 269 274 279 279 286 289 293 294 298 306 309 314 314 316 317 320 321 322 320 316 318 321 324
245 248 257 259 261 263 269 273 272 272 273 271 264 262 259 264 267 268 270 270 273 274 278 281 283 289 291 297 304 305 308 313 315 316 318 319 321 321 317 312 314 319 322
248 255 257 261 265 260 262 269 268 269 267 269 277 274 269 270 275 272 271 272 275 279 283 285 289 292 297 304 304 307 309 312 315 316 316 318 320 321 315 309 309 314 318
Height
10949 10950 10952 10953 10953 10955 10955 10954 10954 10952 10951 10950 10949 10947 10945 10942 10939 10934 10931 10927 10923 10917 10913 10909 10905 10901 10894 10887 10881 10876 10870 10866 10862 10855 10847 10842 10837 10831 10825 10822 10821 10821 10818
10944 10943 10945 10946 10947 10949 10949 10948 10946 10946 10945 10944 10943 10941 10939 10936 10932 10928 10923 10920 10916 10909 10902 10897 10893 10889 10883 10878 10871 10865 10860 10854 10849 10845 10839 10832 10826 10821 10815 10811 10806 10802 10801
10938 10938 10938 10939 10940 10941 10941 10940 10938 10937 10936 10935 10935 10933 10931 10929 10925 10921 10916 10912 10907 10901 10895 10888 10883 10879 10873 10868 10862 10856 10849 10842 10834 10827 10822 10816 10813 10808 10802 10796 10791 10787 10783
10930 10929 10930 10931 10933 10934 10933 10932 10932 10930 10927 10925 10924 10923 10923 10922 10919 10914 10908 10904 10897 10890 10884 10878 10872 10866 10862 10857 10851 10845 10837 10830 10823 10816 10809 10802 10800 10798 10793 10786 10778 10774 10767
10922 10921 10920 10922 10923 10924 10922 10922 10922 10922 10921 10920 10917 10915 10913 10911 10909 10904 10899 10895 10889 10881 10875 10869 10860 10854 10848 10844 10838 10833 10825 10819 10814 10807 10801 10796 10790 10785 10781 10774 10764 10756 10747
10912 10911 10911 10911 10912 10913 10911 10911 10910 10909 10909 10909 10905 10904 10901 10899 10896 10892 10887 10883 10879 10872 10865 10860 10852 10845 10839 10833 10826 10820 10815 10809 10804 10798 10790 10784 10779 10774 10763 10754 10746 10736 10727
10897 10898 10900 10899 10899 10900 10900 10900 10898 10898 10897 10896 10895 10893 10890 10887 10884 10881 10873 10868 10867 10861 10856 10849 10844 10836 10829 10822 10816 10807 10799 10793 10786 10778 10773 10768 10761 10752 10740 10728 10717 10707 10698
10882 10884 10887 10888 10885 10884 10886 10887 10886 10887 10888 10888 10886 10884 10882 10877 10872 10867 10860 10854 10852 10846 10840 10834 10830 10824 10817 10810 10802 10795 10787 10779 10772 10766 10756 10745 10737 10727 10714 10700 10687 10678 10669
10866 10866 10868 10874 10872 10872 10875 10872 10873 10875 10876 10876 10875 10872 10869 10865 10860 10854 10846 10839 10836 10831 10826 10821 10816 10810 10803 10797 10788 10781 10773 10766 10757 10746 10737 10728 10717 10705 10697 10684 10668 10656 10647
10849 10850 10847 10856 10861 10862 10860 10862 10862 10860 10862 10862 10861 10859 10855 10849 10844 10839 10833 10825 10819 10815 10812 10806 10802 10796 10791 10786 10776 10768 10761 10751 10740 10729 10720 10713 10703 10688 10675 10659 10643 10630 10617
10836 10834 10832 10836 10843 10850 10849 10850 10852 10850 10847 10847 10847 10847 10840 10835 10828 10824 10818 10809 10802 10799 10795 10789 10785 10781 10775 10772 10765 10755 10745 10734 10725 10714 10704 10693 10681 10667 10651 10634 10620 10604 10591
10818 10820 10823 10829 10829 10828 10831 10833 10833 10834 10831 10832 10832 10828 10823 10820 10815 10811 10803 10795 10787 10785 10780 10773 10769 10764 10758 10753 10751 10740 10733 10722 10711 10700 10690 10677 10664 10649 10632 10616 10596 10579 10567
10810 10816 10819 10820 10820 10819 10817 10816 10815 10819 10818 10817 10816 10809 10806 10803 10804 10794 10788 10784 10778 10775 10767 10761 10756 10751 10744 10739 10733 10728 10720 10709 10697 10685 10674 10661 10646 10631 10615 10596 10579 10562 10549
10800 10803 10805 10808 10811 10810 10799 10795 10800 10804 10802 10797 10795 10795 10797 10800 10797 10787 10780 10774 10765 10764 10760 10752 10744 10738 10733 10729 10721 10716 10708 10696 10684 10673 10661 10647 10630 10614 10598 10579 10562 10546 10534
10781 10785 10789 10795 10797 10792 10784 10781 10785 10790 10791 10788 10788 10796 10794 10786 10784 10780 10771 10757 10755 10749 10746 10739 10728 10725 10720 10715 10707 10701 10696 10685 10672 10659 10646 10631 10616 10598 10580 10563 10547 10532 10520
10765 10768 10775 10777 10775 10773 10769 10769 10770 10768 10775 10786 10786 10789 10783 10788 10786 10776 10760 10749 10746 10738 10731 10724 10718 10710 10703 10700 10693 10687 10682 10670 10659 10646 10633 10618 10601 10583 10562 10546 10532 10517 10506
10749 10753 10758 10763 10760 10762 10763 10763 10754 10770 10770 10770 10775 10770 10782 10781 10768 10761 10758 10737 10724 10722 10716 10706 10702 10698 10690 10686 10679 10675 10672 10657 10646 10634 10620 10602 10585 10566 10550 10531 10517 10505 10496
10731 10737 10742 10748 10728 10724 10756 10758 10764 10762 10767 10749 10752 10751 10761 10757 10746 10740 10727 10721 10712 10705 10701 10695 10688 10681 10676 10674 10666 10666 10658 10644 10635 10619 10605 10588 10571 10553 10533 10517 10505 10495 10486
10715 10719 10721 10729 10726 10718 10744 10744 10737 10737 10742 10744 10738 10733 10736 10733 10729 10725 10718 10709 10699 10693 10687 10682 10675 10668 10666 10661 10657 10654 10643 10632 10620 10604 10589 10572 10554 10535 10521 10507 10498 10488 10479
10702 10704 10705 10709 10706 10713 10720 10725 10720 10723 10724 10723 10722 10723 10718 10714 10711 10707 10701 10693 10686 10680 10673 10667 10664 10658 10655 10652 10651 10641 10632 10619 10604 10589 10575 10559 10542 10526 10512 10501 10492 10481 10472
10690 10692 10689 10691 10690 10690 10695 10700 10706 10705 10704 10706 10705 10699 10696 10694 10692 10689 10684 10677 10671 10664 10659 10653 10649 10649 10649 10647 10637 10630 10617 10604 10589 10574 10560 10546 10532 10517 10504 10493 10482 10472 10463
10675 10676 10676 10675 10674 10679 10681 10682 10685 10684 10683 10683 10681 10679 10680 10678 10674 10666 10660 10655 10653 10650 10647 10643 10642 10640 10640 10633 10623 10611 10598 10587 10572 10559 10547 10534 10521 10507 10494 10483 10473 10465 10457
10656 10658 10659 10658 10658 10663 10666 10666 10668 10669 10671 10670 10667 10663 10661 10653 10651 10649 10645 10639 10637 10634 10631 10633 10632 10630 10627 10617 10603 10591 10579 10570 10558 10545 10533 10521 10509 10495 10484 10474 10466 10459 10452
10638 10641 10642 10644 10645 10644 10649 10654 10655 10651 10649 10646 10640 10638 10637 10633 10631 10629 10626 10624 10622 10623 10622 10619 10617 10613 10607 10598 10581 10574 10564 10555 10545 10532 10520 10507 10496 10485 10476 10467 10459 10453 10446
10621 10623 10623 10623 10624 10625 10624 10624 10623 10621 10617 10618 10618 10617 10618 10614 10613 10611 10610 10609 10608 10608 10606 10598 10595 10591 10585 10578 10567 10555 10546 10537 10527 10515 10505 10494 10486 10476 10467 10460 10453 10446 10440
10604 10606 10607 10607 10608 10607 10607 10605 10603 10603 10601 10600 10601 10600 10600 10597 10595 10591 10590 10590 10588 10585 10581 10576 10570 10565 10561 10554 10545 10534 10527 10521 10510 10500 10491 10482 10475 10466 10458 10453 10446 10440 10435